AO-07 1 07530U 74089B 20128.55153417 -.00000056 00000-0 -68591-4 0 9993 2 07530 101.7967 098.5264 0012627 082.7595 026.3776 12.53643315080862 UO-11 1 14781U 84021B 20128.54061037 .00000092 00000-0 17416-4 0 9999 2 14781 097.5923 142.5462 0007980 346.5046 013.5954 14.83163228925768 LO-19 1 20442U 90005G 20128.73400637 -.00000020 00000-0 91913-5 0 9990 2 20442 98.6892 75.8519 0010609 275.8951 84.1023 14.32951860582781 HUBBLE 1 20580U 90037B 20128.70362420 .00000446 00000-0 16140-4 0 9991 2 20580 28.4690 229.1867 0002820 17.1357 114.2155 15.09382586449897 MET-2/21 1 22782U 93055A 20128.66088413 .00000028 00000-0 11977-4 0 9991 2 22782 82.5482 265.9484 0022080 352.8976 17.7175 13.83825800347675 AO-27 1 22825U 93061C 20128.72285851 -.00000019 00000-0 10481-4 0 9998 2 22825 98.9240 130.1495 0009247 130.9453 229.2530 14.30084113388268 IO-26 1 22826U 93061D 20127.87943414 -.00000009 00000-0 14387-4 0 9998 2 22826 98.9180 129.2367 0009877 122.6446 237.5690 14.30419372388356 FO-29 1 24278U 96046B 20128.57353765 -.00000020 00000-0 12765-4 0 9990 2 24278 98.5781 243.7709 0351300 120.6545 242.9720 13.53097726171604 NOAA-15 1 25338U 98030A 20128.66683735 .00000075 00000-0 50072-4 0 9998 2 25338 98.7204 153.9184 0010813 27.8312 332.3444 14.25963127143427 GO-32 1 25397U 98043D 20128.47204064 -.00000020 00000-0 10577-4 0 9997 2 25397 098.7258 070.2872 0001682 136.7220 223.4091 14.23684176133720 ISS 1 25544U 98067A 20128.89895833 .00000688 00000-0 20403-4 0 9991 2 25544 51.6445 187.8730 0001103 254.8682 88.2043 15.49354427225762 NO-44 1 26931U 01043C 20128.41017269 -.00000043 00000-0 15327-4 0 9992 2 26931 067.0513 248.3097 0005810 267.7812 092.2624 14.30575942971209 SO-50 1 27607U 02058C 20128.43428399 -.00000026 00000-0 17005-4 0 9998 2 27607 064.5537 139.7815 0053149 188.3111 171.7117 14.75631395934671 CO-55 1 27844U 03031E 20128.69881232 .00000044 00000-0 39400-4 0 9992 2 27844 98.6830 137.0479 0010105 166.5982 193.5466 14.22235715874348 CO-57 1 27848U 03031J 20128.57287749 .00000028 00000-0 32712-4 0 9997 2 27848 98.6898 137.4770 0009732 178.9460 181.1739 14.21822704874161 RS-22 1 27939U 03042A 20128.86747791 .00000051 00000-0 17815-4 0 9993 2 27939 98.0834 264.2407 0014249 119.5639 240.6997 14.66856748888065 NOAA-18 1 28654U 05018A 20128.64540519 .00000099 00000-0 78445-4 0 9996 2 28654 99.0473 184.6855 0013849 350.5914 9.4996 14.12508408771249 CO-58 1 28895U 05043F 20128.60456186 .00000106 00000-0 29172-4 0 9995 2 28895 98.0031 266.1185 0017830 53.0336 307.2496 14.63764160774864 Falconsat-3 1 30776U 07006E 20128.58598969 .00002332 00000-0 62977-4 0 9993 2 30776 35.4336 181.4484 0002608 192.1845 167.8819 15.37651293730546 CO-65 1 32785U 08021C 20128.66077323 .00000205 00000-0 27706-4 0 9996 2 32785 97.5716 118.4762 0011433 268.7715 91.2193 14.88459591651875 AAUSAT2 1 32788U 08021F 20128.49190788 .00000811 00000-0 79027-4 0 9997 2 32788 097.4921 134.8121 0011503 185.0071 175.1037 14.95030358653190 DO-64 1 32789U 08021G 20128.65084244 .00001220 00000-0 83876-4 0 9997 2 32789 97.4221 172.8731 0013877 96.1499 264.1311 15.07653985655765 CO-66 1 32791U 08021J 20128.73210252 .00000424 00000-0 48230-4 0 9999 2 32791 97.5403 124.6840 0011901 234.4650 125.5460 14.91031636652395 RS-30 1 32953U 08025A 20128.83321706 .00000037 00000-0 19437-3 0 9997 2 32953 82.5000 303.1718 0019787 140.8338 219.4176 12.43095439542585 PRISM 1 33493U 09002B 20128.74855692 .00000125 00000-0 16421-4 0 9998 2 33493 98.1419 67.3590 0014619 186.0498 174.0548 14.97004171613624 NOAA-19 1 33591U 09005A 20128.78808419 .00000048 00000-0 51462-4 0 9997 2 33591 99.1964 133.0773 0013862 185.7218 174.3797 14.12406661579658 TISAT-1 1 36799U 10035E 20128.50942495 .00000214 00000-0 27628-4 0 9990 2 36799 098.1912 297.2175 0013659 103.3798 256.8943 14.91336899532824 JUGNU 1 37839U 11058B 20128.82803454 .00000306 00000-0 21209-4 0 9999 2 37839 19.9600 169.1325 0018749 300.9745 217.7054 14.12678922443145 SRMSAT 1 37841U 11058D 20128.40293770 .00000317 00000-0 28865-4 0 9997 2 37841 019.9713 235.1921 0011810 152.1928 262.5646 14.10657722442362 AO-71 1 37854U 11061E 20128.14130770 .00001541 00000-0 84797-4 0 9992 2 37854 101.7001 198.0870 0158780 184.5893 175.3873 15.07184434465252 HRBE 1 37855U 11061F 20128.59153665 .00001471 00000-0 80058-4 0 9998 2 37855 101.7139 195.9464 0171364 196.1510 163.4199 15.06202531465525 HORYU-2 1 38340U 12025D 20128.66683306 .00000168 00000-0 32424-4 0 9993 2 38340 98.2843 181.2042 0011918 164.9616 195.1949 14.75842790428947 RS-40 1 38735U 12041C 20128.70856260 -.00000008 00000-0 -13064-3 0 9998 2 38735 82.4813 26.0712 0015823 251.6670 108.2651 12.42579364352790 BEESAT-3 1 39135U 13015F 20128.46561154 .00000774 00000-0 47041-4 0 9994 2 39135 064.8658 073.7842 0039089 254.9474 104.7325 15.18110344388992 BEESAT-2 1 39136U 13015G 20128.03544017 .00001005 00000-0 59409-4 0 9996 2 39136 064.8678 080.0021 0029310 281.2792 078.5041 15.17495368388834 ZACUBE-1 1 39417U 13066B 20127.88875461 .00000204 00000-0 31808-4 0 9999 2 39417 097.5650 128.2253 0060215 055.1360 305.5495 14.81261105348886 TRITON-1 1 39427U 13066M 20128.85403521 .00000154 00000-0 32613-4 0 9991 2 39427 97.7224 92.0480 0112866 207.3051 152.2194 14.67989086345906 GOMX-1 1 39430U 13066Q 20128.80453759 .00000193 00000-0 44321-4 0 9990 2 39430 97.7872 69.7935 0150161 313.1595 45.7150 14.59388049343879 LO-74 1 39440U 13066AA 20128.40800770 .00000172 00000-0 30587-4 0 9992 2 39440 097.6290 113.1840 0081549 113.0301 247.9536 14.75997896346520 AO-73 1 39444U 13066AE 20128.58549276 .00000280 00000-0 40479-4 0 9997 2 39444 97.5595 131.0906 0059148 45.4771 315.1254 14.82111007347900 SPROUT 1 39770U 14029E 20128.72597398 .00000533 00000-0 64504-4 0 9999 2 39770 97.8922 235.1867 0010200 98.9097 261.3273 14.87721195323009 DUCHIFAT-1 1 40021U 14033M 20128.33942205 .00000367 00000-0 43098-4 0 9993 2 40021 097.9415 059.3277 0014346 065.4322 294.8389 14.90881966319768 NANOSATCBR1 1 40024U 14033Q 20128.67519999 .00000382 00000-0 45448-4 0 9991 2 40024 97.9267 56.1768 0013640 68.5430 291.7241 14.90054856319680 DTUSAT-2 1 40030U 14033W 20128.75392529 .00000207 00000-0 28196-4 0 9992 2 40030 97.9032 50.6251 0013346 71.2949 288.9715 14.88699680319469 EO-80 1 40032U 14033Y 20128.50254610 .00000220 00000-0 29584-4 0 9992 2 40032 097.9040 050.3764 0013320 072.7988 287.4685 14.88647755318899 ANTELSAT 1 40034U 14033AA 20128.67835596 .00000209 00000-0 38013-4 0 9994 2 40034 97.7196 346.3169 0059724 129.4957 231.1555 14.74243937316408 VELOX-1 1 40057U 14034E 20128.80953143 .00000275 00000-0 45920-4 0 9992 2 40057 98.2722 264.6734 0009542 276.8721 83.1412 14.77854589315638 DAURIA DX 1 1 40071U 14037C 20128.71908281 .00000117 00000-0 22478-4 0 9992 2 40071 98.4584 304.8721 0007157 269.7797 90.2599 14.81357873315228 HODOYOSHI-1 1 40299U 14070B 20128.87692096 .00000450 00000-0 21425-4 0 9993 2 40299 97.3234 206.5539 0012503 346.8162 79.4748 15.24032709305634 CHUBUSAT-1 1 40300U 14070C 20128.80291918 .00000531 00000-0 25797-4 0 9993 2 40300 97.2895 199.1729 0020195 0.7856 138.4188 15.22472175305322 QSAT-EOS 1 40301U 14070D 20128.83297418 .00001383 00000-0 54779-4 0 9996 2 40301 97.2936 204.2007 0024384 335.9794 163.0170 15.26850971305732 FIREBIRD FU3 1 40377U 15003B 20128.77828238 .00002633 00000-0 10353-3 0 9997 2 40377 99.0979 180.6566 0125221 90.0252 271.5327 15.19943561291136 FIREBIRD FU4 1 40378U 15003C 20128.76294786 .00002737 00000-0 10730-3 0 9996 2 40378 99.0981 180.7341 0125421 89.9525 271.6077 15.19958892291130 GRIFEX 1 40379U 15003D 20128.76690191 .00001845 00000-0 80202-4 0 9998 2 40379 99.1060 172.8907 0134184 113.9267 247.6082 15.16316729290689 NO-84 1 40654U 15025D 20127.36542467 .00011053 00000-0 13107-3 0 9233 2 40654 54.9838 134.6193 0122492 79.1469 282.3320 15.53248860162484 DEORBITSAIL 1 40719U 15032E 20128.51467226 .00000388 00000-0 62149-4 0 9993 2 40719 097.8747 018.1559 0016173 345.9387 014.1371 14.76977611260050 NUDT-PHONESAT 1 40900U 15049B 20128.88359181 .00001991 00000-0 85037-4 0 9995 2 40900 97.4317 140.1909 0014050 121.7847 356.6893 15.23969279257018 XW-2A 1 40903U 15049E 20128.91576796 .00001864 00000-0 44179-4 0 9996 2 40903 97.2919 177.8321 0014605 54.4392 70.4495 15.42962359260224 XW-2C 1 40906U 15049H 20128.85828884 .00000662 00000-0 37824-4 0 9994 2 40906 97.4767 130.8081 0015587 149.2949 329.8629 15.16035180256109 XW-2D 1 40907U 15049J 20128.85846274 .00000709 00000-0 39994-4 0 9990 2 40907 97.4745 130.5092 0014850 146.0939 334.4267 15.16262994256128 LILACSAT-2 1 40908U 15049K 20128.86781345 .00000586 00000-0 35811-4 0 9996 2 40908 97.4906 128.9259 0016442 156.5253 321.0488 15.14021168255858 XW-2E 1 40909U 15049L 20128.74530948 .00000899 00000-0 46984-4 0 9995 2 40909 97.4639 133.8092 0014537 138.2632 276.8618 15.18365903256353 XW-2F 1 40910U 15049M 20128.82689993 .00000849 00000-0 45121-4 0 9998 2 40910 97.4685 132.9915 0015899 137.6184 344.8462 15.17875632256174 XW-2B 1 40911U 15049N 20128.84074167 .00000412 00000-0 24760-4 0 9994 2 40911 97.4759 131.1846 0015014 147.2075 335.0620 15.16186794256010 DCBB 1 40912U 15049P 20128.88422520 .00001074 00000-0 52555-4 0 9997 2 40912 97.4488 137.1533 0016244 117.0055 1.0657 15.20260825256550 TW-1C 1 40926U 15051B 20128.91868939 .00020031 00000-0 20981-3 0 9998 2 40926 97.0888 180.4609 0004938 222.1517 312.4560 15.64434148260688 TW-1A 1 40928U 15051D 20128.78654551 .00002585 00000-0 61644-4 0 9994 2 40928 97.1126 157.6046 0009979 345.8325 71.8836 15.42424316259106 IO-86 1 40931U 15052B 20128.82399476 .00000447 00000-0 -26996-4 0 9993 2 40931 5.9953 265.2278 0014479 62.2129 297.9476 14.76632221249248 LQSat 1 40958U 15057A 20128.09185090 .00000022 00000-0 11056-4 0 9990 2 40958 97.8556 192.8057 0016694 283.9940 75.9412 14.73117521246418 ATHENOXAT-1 1 41168U 15077C 20127.93759516 .00001833 00000-0 60324-4 0 9991 2 41168 14.9891 6.0091 0011484 270.1721 89.7284 15.14311384243040 ChubuSat-2 1 41338U 16012B 20128.65148300 .00000306 00000-0 17030-4 0 9993 2 41338 31.0028 245.7761 0013669 71.8914 288.3210 15.00283338231601 ChubuSat-3 1 41339U 16012C 20128.71713478 .00000267 00000-0 13942-4 0 9999 2 41339 31.0120 243.0433 0013394 79.6511 280.5634 15.00448953231617 Horyu-4 1 41340U 16012D 20128.54835435 .00000454 00000-0 27637-4 0 9994 2 41340 31.0045 232.2809 0013802 102.3682 257.8499 15.01481239231722 OUFTI-1 1 41458U 16025C 20128.77556627 .00001166 00000-0 62309-4 0 9992 2 41458 98.1005 237.2104 0163298 347.1986 12.5116 15.06768284221359 e-st@r-II 1 41459U 16025D 20128.80949608 .00001005 00000-0 54773-4 0 9990 2 41459 98.0976 236.6917 0164703 349.1434 10.6249 15.06341476221326 AAUSAT4 1 41460U 16025E 20128.80906755 .00001349 00000-0 69970-4 0 9994 2 41460 98.0952 238.8799 0153495 338.3100 21.1666 15.08602352221516 LO-87 1 41557U 16033B 20128.77659735 .00001165 00000-0 45397-4 0 9992 2 41557 97.4022 219.2696 0012320 226.9211 133.0998 15.27939237219568 NuSat2 1 41558U 16033C 20128.79463611 .00001287 00000-0 47026-4 0 9997 2 41558 97.4073 221.4392 0011416 223.7889 136.2447 15.29914879219677 Lapan A3 1 41603U 16040E 20128.85315855 .00000117 00000-0 85746-5 0 9992 2 41603 97.3127 183.6597 0013333 352.1522 118.4383 15.19828264214974 Swayam 1 41607U 16040J 20128.43152620 .00001418 00000-0 61102-4 0 9993 2 41607 097.3208 188.7636 0012298 338.9589 021.1141 15.24140987215172 Pratham 1 41783U 16059A 20128.57472663 .00000053 00000-0 19412-4 0 9996 2 41783 98.0201 185.1759 0034966 85.4063 275.1131 14.63052591192902 AlSat 1N 1 41789U 16059G 20128.69577199 .00000054 00000-0 19131-4 0 9994 2 41789 98.0230 188.0160 0029718 73.1725 287.2732 14.64315445193066 ScatSat 1 41790U 16059H 20128.84717369 .00000006 00000-0 12389-4 0 9993 2 41790 98.1647 170.3335 0006991 52.6098 307.5724 14.50909062191336 TY-1 1 41844U 16066D 20128.88415837 .00000801 00000-0 35090-4 0 9997 2 41844 97.4043 137.5088 0016438 123.2229 355.3322 15.24793518194085 Pegasus-1 1 41846U 16066F 20128.64725989 .00000162 00000-0 35260-4 0 9994 2 41846 98.6655 178.2617 0366703 354.9179 4.8326 14.37752206183102 CAS-2T 1 41847U 16066G 20128.64302731 .00000033 00000-0 15745-4 0 9994 2 41847 98.6582 178.7332 0365490 350.7300 8.7260 14.38061332183556 EO-88 1 42017U 17008BX 20128.77475638 .00001519 00000-0 61122-4 0 9992 2 42017 97.3622 196.9271 0007988 103.6579 256.5549 15.26395748179343 CAS-4B 1 42759U 17034B 20128.80760023 .00000263 00000-0 29432-4 0 9996 2 42759 43.0186 250.3714 0009797 138.0833 354.6708 15.09808542159821 CAS-4A 1 42761U 17034D 20128.82072949 .00000167 00000-0 23573-4 0 9997 2 42761 43.0185 249.6240 0010166 139.2644 356.5127 15.09886181159824 UCLSat 1 42765U 17036A 20128.23783922 .00001186 00000-0 52628-4 0 9993 2 42765 097.3045 183.5795 0011816 163.0478 197.1157 15.23443444160303 NIUSat 1 42766U 17036B 20128.76429771 .00000941 00000-0 44509-4 0 9998 2 42766 97.3041 181.6748 0016162 157.2782 202.9173 15.21655846159501 LituanicaSAT 2 1 42768U 17036D 20128.62292414 .00002142 00000-0 91264-4 0 9992 2 42768 97.3096 183.8653 0015615 153.9852 206.2173 15.23930301159629 Aalto 1 1 42775U 17036L 20128.42266644 .00000743 00000-0 35660-4 0 9997 2 42775 097.3022 181.6918 0014521 157.3024 202.8857 15.21786271159433 URSA MAIOR 1 42776U 17036M 20128.41683101 .00000843 00000-0 39868-4 0 9993 2 42776 097.3035 181.9531 0014343 157.0004 203.1877 15.21963634159446 Max Valier Sat 1 42778U 17036P 20128.66173352 .00000967 00000-0 44543-4 0 9997 2 42778 97.3086 183.4185 0012935 158.3326 201.8461 15.22552955159526 Pegasus 1 42784U 17036V 20128.12338018 .00001073 00000-0 48307-4 0 9998 2 42784 97.3050 183.1739 0012314 164.7221 195.4390 15.23135180159484 NUDATSat 1 42787U 17036Y 20128.41222404 .00001726 00000-0 73211-4 0 9991 2 42787 097.3118 184.7588 0009815 160.0572 200.1061 15.24405073159448 SUCHAI 1 1 42788U 17036Z 20128.42503250 .00001348 00000-0 58999-4 0 9990 2 42788 097.3058 184.0183 0011959 161.9211 198.2454 15.23670996159639 SKCUBE 1 42789U 17036AA 20128.07286371 .00001210 00000-0 53517-4 0 9993 2 42789 097.3053 183.5402 0011803 163.3226 196.8402 15.23518257159495 VZLUSAT 1 1 42790U 17036AB 20128.40089984 .00001695 00000-0 71928-4 0 9996 2 42790 097.3077 184.7417 0011441 159.8364 200.3328 15.24395129159594 VENTA 1 1 42791U 17036AC 20128.11219391 .00001122 00000-0 49860-4 0 9997 2 42791 097.3051 183.6231 0011441 163.4222 196.7392 15.23505896159494 Robusta 1B 1 42792U 17036AD 20128.42576744 .00001251 00000-0 54930-4 0 9997 2 42792 097.3055 184.1226 0011409 162.1548 198.0092 15.23705518159574 D-SAT 1 42794U 17036AF 20128.64643816 .00000392 00000-0 38971-4 0 9990 2 42794 97.4975 163.3160 0127288 140.6890 220.3656 14.91260964156610 TechnoSat 1 42829U 17042E 20128.68366716 .00000267 00000-0 32209-4 0 9990 2 42829 97.5254 12.3661 0015669 63.5525 296.7299 14.91088554153212 QIKCOM-1 1 42983U 98067NF 20128.66682978 .00003674 00000-0 48497-4 0 9997 2 42983 51.6370 151.0611 0003054 268.5089 91.5555 15.61276263143912 AO-91 1 43017U 17073E 20128.32060194 .00000299 00000-0 28765-4 0 9993 2 43017 97.7246 42.1434 0256920 184.0611 175.8520 14.78898857133083 EcAMSat 1 43019U 98067NG 20128.72973780 .00007902 00000-0 82128-4 0 9996 2 43019 51.6386 138.0583 0002799 258.4405 101.6277 15.65672637226418 PICSAT 1 43132U 18004X 20128.09076054 .00001216 00000-0 52643-4 0 9994 2 43132 97.4490 199.6825 0009273 188.9152 171.1923 15.24323381128752 AO-92 1 43137U 18004AC 20128.77800968 .00000961 00000-0 42546-4 0 9990 2 43137 97.4476 200.2110 0008862 188.2798 171.8295 15.24052152128843 TianYi 2 1 43155U 18008A 20128.90299359 .00000286 00000-0 20554-4 0 9990 2 43155 97.4484 199.0236 0015918 290.0732 180.1793 15.11579687126797 Zhou Enlai 1 43156U 18008B 20128.85506719 .00000888 00000-0 56678-4 0 9990 2 43156 97.4531 198.8301 0012968 289.2375 182.3938 15.11123632126741 TianYi 6 1 43158U 18008D 20128.79939084 .00000928 00000-0 59807-4 0 9992 2 43158 97.4469 197.8828 0012217 287.5490 211.7717 15.10662919126682 S-Net G 1 43186U 18014G 20128.66955411 .00000023 00000-0 70387-5 0 9991 2 43186 97.6961 37.1655 0011193 8.2253 351.9150 14.96790840123596 S-Net H 1 43187U 18014H 20128.66937391 .00000021 00000-0 68838-5 0 9995 2 43187 97.6959 37.1449 0011187 8.1577 351.9825 14.96790763123599 S-Net J 1 43188U 18014J 20128.66923759 .00000015 00000-0 63996-5 0 9992 2 43188 97.6962 37.1730 0011188 8.2302 351.9101 14.96790569123596 S-Net K 1 43189U 18014K 20128.66964281 .00000029 00000-0 75893-5 0 9992 2 43189 97.6959 37.1408 0011177 8.1458 351.9943 14.96789921122148 FMN 1 1 43192U 18015A 20128.73721767 .00001977 00000-0 80831-4 0 9995 2 43192 97.4359 258.4417 0014501 228.9106 272.6283 15.25475914125694 Shaonian Xing 1 43199U 18015H 20128.80140649 .00001338 00000-0 55281-4 0 9996 2 43199 97.4141 256.8843 0015307 240.3877 263.5472 15.25668892125769 1KUNS-PF 1 43466U 98067NP 20128.80780707 .00196739 26538-4 46065-3 0 9990 2 43466 51.6248 106.4570 0004425 64.0005 296.1459 15.96540204114013 UBAKUSAT 1 43467U 98067NQ 20128.73164883 .00025509 00000-0 18231-3 0 9996 2 43467 51.6315 131.0230 0001108 33.3760 326.7309 15.73583932113695 EnduroSat One 1 43551U 98067NZ 20128.05761039 .00044290 00000-0 25705-3 0 9993 2 43551 051.6325 133.2390 0004074 343.9499 016.1372 15.78056656103833 EQUISat 1 43552U 98067PA 20128.45267377 .00027440 00000-0 20540-3 0 9994 2 43552 051.6339 139.0145 0004392 327.1978 032.8747 15.72440608103750 UiTMSat 1 1 43589U 98067PD 20128.73234485 .00033014 00000-0 22364-3 0 9999 2 43589 51.6303 136.2074 0004473 345.7997 14.2876 15.74674893 99554 Maya 1 1 43590U 98067PE 20128.72520268 .00033245 00000-0 22509-3 0 9994 2 43590 51.6290 136.1690 0004629 344.1877 15.8977 15.74682414 99486 Bhutan 1 1 43591U 98067PF 20128.38399050 .00034377 00000-0 23165-3 0 9996 2 43591 51.6316 137.7003 0004599 344.7222 15.3638 15.74774941 99438 SiriusSat 1 1 43595U 98067PG 20128.75689187 .00028086 00000-0 20864-3 0 9997 2 43595 51.6309 140.1579 0002067 341.0865 19.0056 15.72614056 98613 SiriusSat 2 1 43596U 98067PH 20128.75238926 .00028291 00000-0 21102-3 0 9993 2 43596 51.6317 140.9486 0002115 330.9278 29.1603 15.72513166 98606 Tanusha-3 1 43597U 98067PJ 20128.71236253 .00065377 00000-0 33125-3 0 9995 2 43597 51.6283 130.7173 0003534 16.3677 343.7438 15.80894385 98732 SurfSat 1 43614U 18070B 20128.63895693 .00002747 00000-0 71035-4 0 9996 2 43614 93.0198 137.7234 0017578 128.4628 231.8207 15.39006114 92202 CP-7 DAVE 1 43615U 18070C 20128.66666247 .00002606 00000-0 67687-4 0 9993 2 43615 93.0200 137.7275 0017750 128.0400 232.2459 15.38870428 92208 ELFIN-B 1 43616U 18070D 20128.67670138 .00003675 00000-0 91516-4 0 9994 2 43616 93.0161 137.6620 0018218 129.7808 230.5055 15.40129153 92240 ELFIN-A 1 43617U 18070E 20128.77963386 .00003841 00000-0 95119-4 0 9994 2 43617 93.0213 138.1827 0017688 126.3588 233.9302 15.40301415 92269 STARS-Me Mother 1 43640U 98067PQ 20128.50281430 .00011588 00000-0 12160-3 0 9999 2 43640 051.6335 155.8394 0003022 248.3656 111.7017 15.64874217090314 CubeBel 1 1 43666U 18083E 20128.90697083 .00000848 00000-0 44708-4 0 9997 2 43666 97.4919 155.7668 0016114 136.6451 345.2511 15.18186101 84468 Changshagaoxin 1 43669U 18083H 20128.78752156 .00000780 00000-0 42546-4 0 9992 2 43669 97.4802 153.9664 0012213 129.7427 230.4884 15.17239334 84363 Ten-Koh 1 43677U 18084G 20128.06242638 .00000176 00000-0 23984-4 0 9996 2 43677 097.8771 245.2373 0014690 297.4119 062.5604 14.90276648082771 PO-101 1 43678U 18084H 20128.75542468 .00000127 00000-0 18372-4 0 9998 2 43678 97.8771 247.1736 0008946 318.5354 41.5207 14.91624953 82952 IRVINE 01 1 43693U 18088D 20128.68434104 .00002765 00000-0 11629-3 0 9995 2 43693 85.0328 103.9964 0020489 82.3768 277.9800 15.22707208 82649 QO-100 1 43700U 18090A 20128.79563372 .00000135 00000-0 00000 0 0 9995 2 43700 0.0144 277.8250 0001239 119.6904 140.7820 1.00275848 5542 Reaktor Hello World 1 43743U 18096AA 20124.15803877 .00001022 00000-0 40858-4 0 9997 2 43743 97.4233 198.2584 0017808 296.3755 63.4923 15.27311117 79483 MinXSS-2 1 43758U 18099A 20128.78910265 .00000067 00000-0 11246-4 0 9996 2 43758 97.7078 201.3891 0014712 329.9195 30.1180 14.95639104 77878 AO-95 1 43770U 18099N 20128.74690186 .00000677 00000-0 67121-4 0 9993 2 43770 97.7076 200.8324 0013791 338.9227 21.1424 14.94965861 77835 RANGE-B 1 43772U 18099Q 20128.77217983 .00000107 00000-0 14992-4 0 9994 2 43772 97.7142 201.3204 0013150 325.4783 34.5582 14.95149254 77835 RANGE-A 1 43773U 18099R 20128.67011263 .00000469 00000-0 48174-4 0 9997 2 43773 97.7018 200.4290 0012513 325.7996 34.2418 14.94949335 77814 MOVE-II 1 43780U 18099Y 20128.63998268 .00000117 00000-0 15819-4 0 9990 2 43780 97.7079 200.9112 0012762 337.2854 22.7801 14.95364953 77810 SNUSat 2 1 43782U 18099AA 20128.44777177 -.00000165 00000-0 -97681-5 0 9998 2 43782 97.7071 200.7356 0011823 326.4424 33.6047 14.95235531 77791 SnugLite 1 43784U 18099AC 20128.75340388 .00000643 00000-0 63485-4 0 9997 2 43784 97.7039 200.8737 0014182 333.2307 26.8181 14.95332290 77858 ITASat 1 1 43786U 18099AE 20128.75309289 .00000614 00000-0 60901-4 0 9992 2 43786 97.7092 201.2288 0014280 332.1908 27.8548 14.95309390 77852 EAGLET 1 1 43790U 18099AJ 20128.75544419 .00000611 00000-0 60018-4 0 9999 2 43790 97.7082 201.4677 0012729 338.0144 22.0529 14.95691181 77569 ESEO 1 43792U 18099AL 20128.76298054 .00000154 00000-0 19035-4 0 9998 2 43792 97.7057 201.3194 0012536 334.7874 25.2734 14.95592909 77623 CSIM 1 43793U 18099AM 20128.28436756 .00000993 00000-0 93525-4 0 9996 2 43793 97.7048 200.8061 0011858 333.6053 26.4563 14.96011240 77532 Astrocast 0.1 1 43798U 18099AS 20128.74947013 .00000660 00000-0 64177-4 0 9997 2 43798 97.7075 201.5527 0011125 316.3254 43.7086 14.95856694 77867 JO-97 1 43803U 18099AX 20128.43780657 -.00000008 00000-0 44517-5 0 9993 2 43803 97.7052 200.7476 0014363 333.6649 26.3840 14.95481405 77803 Suomi 100 1 43804U 18099AY 20128.63907066 -.00000059 00000-0 -11343-6 0 9990 2 43804 97.7050 200.9356 0014441 333.0209 27.0260 14.95471333 77841 Al Farabi 2 1 43805U 18099AZ 20128.81721677 .00000830 00000-0 79856-4 0 9999 2 43805 97.7057 201.1833 0014249 332.4183 27.6280 14.95585748 77879 PWSat 2 1 43814U 18099BJ 20128.75736850 .00024372 00000-0 14736-2 0 9992 2 43814 97.7856 208.7141 0002604 338.3322 21.7795 15.10648276 77570 CHOMPTT 1 43855U 18104G 20128.43571163 .00000941 00000-0 38277-4 0 9997 2 43855 085.0405 202.3338 0016030 195.9303 164.1437 15.22911078077286 ISAT 1 43879U 18111D 20128.83737167 .00000518 00000-0 50962-4 0 9998 2 43879 97.7051 36.9162 0014025 26.8815 333.3130 14.96220383 72419 UWE-4 1 43880U 18111E 20128.48999405 .00000785 00000-0 74203-4 0 9996 2 43880 097.7058 036.8218 0013054 029.3591 330.8361 14.96447902074361 Sparrow 1 43881U 18111F 20128.80805923 .00000312 00000-0 32495-4 0 9997 2 43881 97.7059 37.2012 0013083 25.4181 334.7681 14.96505213 72416 Lume 1 1 43908U 18111AJ 20127.97289706 .00000960 00000-0 41178-4 0 9996 2 43908 97.2692 29.1220 0019658 292.0118 67.9032 15.24968568 75709 FO-98 1 43933U 19003B 20122.73524494 .00000846 00000-0 39771-4 0 9999 2 43933 097.2343 174.2509 0019296 050.3484 068.5738 15.22053219071422 FO-99 1 43937U 19003F 20122.70883464 .00001418 00000-0 60402-4 0 9996 2 43937 097.2309 175.3342 0025107 033.6158 082.4929 15.24287230071516 Delphini 1 1 44030U 98067PW 20128.54321432 .00016839 00000-0 17366-3 0 9991 2 44030 051.6330 162.1191 0003874 312.5043 047.5625 15.64933422072100 MYSat 1 1 44045U 18092F 20128.60827537 .00002629 00000-0 83315-4 0 9991 2 44045 051.6463 240.5787 0011671 172.1747 187.9418 15.36512290069010 AstroCast 0.2 1 44083U 19018F 20128.77955111 .00000618 00000-0 30483-4 0 9994 2 44083 97.4241 190.3810 0011978 320.4140 39.6220 15.21558117 61195 AISTechSat 3 1 44103U 19018AB 20128.89448628 .00000679 00000-0 31749-4 0 9993 2 44103 97.4122 190.6390 0012796 337.5260 81.0319 15.23103508 61263 AISat 1 1 44104U 19018AC 20128.64909586 .00000744 00000-0 26297-4 0 9997 2 44104 97.4661 198.0601 0058153 359.4987 0.6185 15.31003547 61567 Raavana-1 1 44329U 98067QE 20128.32250638 .00008329 00000-0 11886-3 0 9993 2 44329 051.6377 180.2499 0005084 210.3083 149.7615 15.57209891050599 Uguisu 1 44330U 98067QF 20128.58968963 .00009040 00000-0 12873-3 0 9998 2 44330 51.6378 179.0303 0005042 209.5450 150.5258 15.57145738 50619 NepaliSat-1 1 44331U 98067QG 20128.12312430 .00008989 00000-0 12761-3 0 9998 2 44331 051.6382 181.1672 0005132 211.3017 148.7670 15.57237205050559 Prox-1 1 44339U 19036A 20128.33430486 .00000931 00000-0 17146-3 0 9991 2 44339 024.0034 010.6097 0010437 064.0690 296.0880 14.52963037046149 Oculus-ASR 1 44348U 19036K 20128.59948683 .00010471 00000-0 15413-3 0 9997 2 44348 028.5203 291.1176 0369768 232.1220 124.5378 15.02016516047652 Armadillo 1 44352U 19036P 20128.75134515 .00014409 00000-0 21311-3 0 9990 2 44352 28.5349 286.8414 0357852 238.4342 118.0802 15.04526716 47659 NO-104 1 44354U 19036R 20128.49218822 .00010033 00000-0 14578-3 0 9993 2 44354 028.5328 289.5093 0366041 233.7145 122.9104 15.02998800047654 NO-103 1 44355U 19036S 20128.70600210 .00016654 00000-0 23410-3 0 9994 2 44355 28.5331 281.4959 0346565 246.7704 109.6036 15.07928263 47742 CP9 1 44360U 19036X 20128.70412880 .00025108 -61528-5 28138-3 0 9998 2 44360 28.5181 270.1005 0331641 265.8662 90.3915 15.14492483 47731 Move-IIb 1 44398U 19038N 20128.59500913 .00000969 00000-0 59564-4 0 9991 2 44398 97.5331 90.3581 0023486 268.6824 91.1716 15.12247724 46407 SONATE 1 44400U 19038Q 20128.68628186 .00000398 00000-0 26964-4 0 9992 2 44400 97.5364 90.4661 0023598 266.4362 93.4169 15.11921579 46418 BeeSat 9 1 44412U 19038AC 20128.44489655 .00000834 00000-0 51816-4 0 9994 2 44412 097.5352 090.2991 0021040 273.3773 086.5050 15.12242736046071 JAISAT-1 1 44419U 19038F 20128.34598177 .00000719 00000-0 44678-4 0 9990 2 44419 097.5354 090.4348 0019932 272.9720 086.9230 15.12725379046389 LightSail-2 1 44420U 19036AC 20128.73390933 .00004385 00000-0 94320-3 0 9994 2 44420 24.0111 5.0561 0010452 49.0991 311.0501 14.55340288 44375 Taurus 1 1 44530U 19059C 20128.82478167 .00001105 00000-0 32607-3 0 9994 2 44530 98.5677 209.5210 0013138 280.7473 79.2215 14.45473890 34475 MO-106 1 44830U 19084G 20128.26575075 .00047191 00000-0 31134-3 0 9998 2 44830 096.9805 357.1264 0029665 039.2597 321.0813 15.74855636023967 TRSI-Sat 1 44831U 19084H 20128.07748198 .00048849 00000-0 32447-3 0 9995 2 44831 96.9816 356.9502 0029938 39.1796 321.1629 15.74682276 23947 MO-105 1 44832U 19084J 20128.67213922 .00057166 00000-0 36254-3 0 9996 2 44832 96.9809 357.6365 0028490 36.9004 323.4215 15.75772470 24038 Duchifat 3 1 44854U 19089C 20128.73000911 .00000307 00000-0 31258-4 0 9999 2 44854 36.9685 339.0149 0006807 87.7710 272.3856 14.99042875 22189 OPS-SAT 1 44878U 19092F 20128.23333783 -.00000066 00000-0 00000-0 0 9990 2 44878 097.4703 312.2109 0015305 136.1066 224.1445 15.15411148021295 FloripaSat 1 1 44885U 19093G 20128.67928679 .00000239 00000-0 36891-4 0 9993 2 44885 97.9580 205.1117 0014847 175.0263 185.1108 14.82013971 20668 RS-44 1 44909U 19096E 20128.23430681 .00000010 00000-0 00000-0 0 9992 2 44909 082.5235 022.7039 0216956 323.2175 035.4201 12.79706839016912 SwampSat-2 1 45115U 19071E 20128.70936634 .00007842 00000-0 24067-3 0 9998 2 45115 51.6417 199.9083 0013101 272.3092 87.6391 15.34618865 14862 HuskySat-1 1 45119U 19071J 20128.66756556 .00001510 00000-0 57482-4 0 9994 2 45119 51.6434 200.3732 0011878 266.9801 92.9822 15.33446593 14863 QARMAN 1 45257U 98067RA 20128.45595855 .00004379 00000-0 82667-4 0 9998 2 45257 051.6413 189.3890 0007731 209.0448 151.0112 15.50693866012146 AztechSat-1 1 45258U 98067RB 20128.45958649 .00003947 00000-0 75610-4 0 9993 2 45258 051.6409 189.4099 0005874 187.9073 172.1825 15.50571339012110 /EX